Terug naar catalogus

DODECAPOLE 2 DEB

ActiefPO
NORAD 41734·DEBRIS·🇺🇸 United States

Gelanceerd Aug 13, 1965 vanaf Vandenberg Space Force Base

Loading…

Volgende Passages (komende 24 uur)

TLE

VersSource: Space-Track

Epoch: Sep 13, 2026, 20:37 UTC

1 41734U 65065U   26256.85949661  .00004347  00000-0  19348-2 0  9995
2 41734  90.0472  23.2415 0033312 179.1207 181.0049 14.22474075548926

Volg DODECAPOLE 2 DEB in realtime met AllMySat

Download on the App Store